Location: Plzen
(49.7500°N, 13.3670°E)
Time: 01:06:23
(UTC+02:00)

ISS - Visible Passes

Search period start: 06 May 2021 00:00
Search period end: 16 May 2021 00:00
Orbit: 418 x 421 km, 51.6° (Epoch: 05 May)

Date Brightness Start Highest point End Pass type
(mag) Time Alt. Az. Time Alt. Az. Time Alt. Az.
06 May -3.4 02:48:19 52° ESE 02:48:19 52° ESE 02:51:15 10° ENE visible
06 May -3.3 04:21:24 10° W 04:24:46 63° N 04:28:08 10° ENE visible
07 May -1.7 02:02:24 21° E 02:02:24 21° E 02:03:45 10° E visible
07 May -3.6 03:35:20 23° W 03:37:17 70° N 03:40:40 10° ENE visible
08 May -3.8 02:49:24 65° W 02:49:49 84° NNW 02:53:14 10° ENE visible
08 May -3.3 04:23:27 10° WNW 04:26:49 62° N 04:30:11 10° E visible
09 May -2.8 02:03:25 41° E 02:03:25 41° E 02:05:47 10° ENE visible
09 May -3.2 03:36:21 13° W 03:39:20 60° N 03:42:41 10° E visible
10 May -1.4 01:17:26 17° E 01:17:26 17° E 01:18:19 10° ENE visible
10 May -3.4 02:50:21 30° WNW 02:51:50 63° N 02:55:12 10° ENE visible
10 May -3.6 04:25:26 10° WNW 04:28:50 79° NNE 04:32:13 10° ESE visible
11 May -3.6 02:04:19 70° NNW 02:04:21 70° N 02:07:44 10° ENE visible
11 May -3.4 03:37:58 10° WNW 03:41:21 68° N 03:44:44 10° E visible
12 May -2.4 01:18:14 34° ENE 01:18:14 34° ENE 01:20:16 10° ENE visible
12 May -3.3 02:51:09 15° WNW 02:53:52 62° N 02:57:13 10° E visible
12 May -3.8 04:27:23 10° WNW 04:30:44 63° SSW 04:34:04 10° ESE visible
13 May -1.4 00:32:03 16° ENE 00:32:03 16° ENE 00:32:48 10° ENE visible
13 May -3.3 02:04:58 31° WNW 02:06:21 60° N 02:09:43 10° E visible
13 May -3.9 03:39:55 10° WNW 03:43:18 83° SSW 03:46:42 10° ESE visible
14 May -3.3 01:18:34 59° NW 01:18:51 63° N 01:22:13 10° ENE visible
14 May -3.7 02:52:27 10° WNW 02:55:51 79° NNE 02:59:14 10° ESE visible
14 May -3.0 04:29:27 10° W 04:32:29 31° SSW 04:35:30 10° SSE visible
14 May -3.4 22:51:26 10° SW 22:54:37 41° SSE 22:57:49 10° E visible
15 May -3.5 00:27:59 10° W 00:31:21 70° NNW 00:34:44 10° ENE visible
15 May -3.5 02:04:59 10° WNW 02:08:21 68° N 02:11:44 10° E visible
15 May -3.5 03:41:53 10° WNW 03:45:07 44° SSW 03:48:21 10° SE visible
15 May -2.9 22:04:20 10° SSW 22:07:16 28° SE 22:10:14 10° E visible
15 May -3.8 23:40:29 10° WSW 23:43:52 83° NNW 23:47:15 10° ENE visible
